📊 Raw Sensor Data
Showing records 32326 to 32350 of 84,690 total
| ID | Distance (ft) | Battery V | Battery A | Int Temp (°F) | Int Humid (%) | Ext Temp (°F) | Solar V | RSSI | SNR | Time Stamp |
|---|---|---|---|---|---|---|---|---|---|---|
| 52377 | 15.0 | 4.00 | -10 | 74 | 47 | 74 | 2.40 | -74 | 8 | 09/18/2025 07:00 PM |
| 52376 | 15.0 | 4.01 | 0 | 75 | 47 | 74 | 4.50 | -73 | 8 | 09/18/2025 06:45 PM |
| 52375 | 15.0 | 4.09 | 0 | 76 | 47 | 76 | 4.50 | -73 | 8 | 09/18/2025 06:30 PM |
| 52374 | 15.0 | 4.11 | 0 | 77 | 47 | 77 | 4.50 | -76 | 7 | 09/18/2025 06:15 PM |
| 52373 | 15.0 | 4.06 | 13 | 78 | 47 | 77 | 4.50 | -75 | 8 | 09/18/2025 06:00 PM |
| 52372 | 15.0 | 4.11 | 0 | 78 | 47 | 78 | 4.50 | -73 | 8 | 09/18/2025 05:45 PM |
| 52371 | 15.0 | 4.09 | 29 | 79 | 47 | 78 | 4.50 | -74 | 7 | 09/18/2025 05:30 PM |
| 52370 | 15.0 | 4.10 | 19 | 80 | 48 | 78 | 4.50 | -72 | 8 | 09/18/2025 05:15 PM |
| 52369 | 15.0 | 4.09 | 33 | 80 | 48 | 79 | 4.50 | -75 | 8 | 09/18/2025 05:00 PM |
| 52368 | 15.0 | 4.09 | 16 | 81 | 49 | 80 | 4.60 | -75 | 7 | 09/18/2025 04:45 PM |
| 52367 | 15.0 | 4.10 | 38 | 82 | 49 | 80 | 4.50 | -72 | 7 | 09/18/2025 04:30 PM |
| 52366 | 15.0 | 4.08 | 44 | 83 | 50 | 80 | 4.50 | -75 | 8 | 09/18/2025 04:15 PM |
| 52365 | 15.1 | 4.14 | 27 | 85 | 51 | 81 | 4.60 | -77 | 8 | 09/18/2025 04:00 PM |
| 52364 | 15.0 | 4.11 | 0 | 87 | 51 | 81 | 5.10 | -75 | 7 | 09/18/2025 03:45 PM |
| 52363 | 14.0 | 4.02 | 0 | 95 | 48 | 86 | 5.10 | -80 | 7 | 09/18/2025 03:15 PM |
| 52362 | 15.2 | 4.03 | 0 | 100 | 44 | 89 | 5.10 | -76 | 8 | 09/18/2025 03:00 PM |
| 52361 | 15.2 | 4.15 | 0 | 97 | 46 | 90 | 5.10 | -75 | 8 | 09/18/2025 02:45 PM |
| 52360 | 15.2 | 4.13 | 0 | 96 | 46 | 88 | 5.10 | -74 | 7 | 09/18/2025 02:30 PM |
| 52359 | 15.1 | 4.07 | 0 | 96 | 47 | 87 | 5.10 | -75 | 8 | 09/18/2025 02:15 PM |
| 52358 | 15.2 | 4.05 | 0 | 98 | 45 | 91 | 5.10 | -76 | 7 | 09/18/2025 02:00 PM |
| 52357 | 15.2 | 4.08 | 0 | 100 | 43 | 92 | 5.10 | -76 | 8 | 09/18/2025 01:45 PM |
| 52356 | 15.2 | 4.04 | 0 | 101 | 42 | 93 | 5.20 | -74 | 8 | 09/18/2025 01:30 PM |
| 52355 | 13.9 | 4.04 | 0 | 98 | 42 | 92 | 5.10 | -74 | 8 | 09/18/2025 01:15 PM |
| 52354 | 15.2 | 4.02 | 0 | 96 | 43 | 92 | 5.10 | -74 | 8 | 09/18/2025 01:00 PM |
| 52353 | 15.2 | 4.02 | 0 | 94 | 43 | 90 | 5.10 | -74 | 8 | 09/18/2025 12:45 PM |